Weather History for Culpeper, VA

Change the Weather History Date:

Sunday, March 10, 2013

  Actual Average (KOMH) Record (KOMH)
Temperature  
Mean Temperature 48 °F -  
Max Temperature 69 °F 54 °F 77 °F (1964)
Min Temperature 28 °F 31 °F 14 °F (1984)
Degree Days  
Heating Degree Days 16    
Moisture  
Dew Point 5 °F    
Average Humidity 42    
Maximum Humidity 100    
Minimum Humidity 4    
Precipitation  
Precipitation 0.00 in - - ()
Sea Level Pressure  
Sea Level Pressure 30.27 in    
Wind  
Wind Speed 2 mph (South)    
Max Wind Speed 10 mph    
Max Gust Speed -    
Visibility 10 miles    
Events      
Averages and records for this station are not official NWS values.
T = Trace of Precipitation, MM = Missing Value Source: NWS Daily Summary

Daily Weather History Graph

Daily Weather History Graph

Search for Another Location

Airport:

Trip Planner

Search our weather history database for the weather conditions in past years. The results will help you decide how hot, cold, wet, or windy it might be!

Date:

Astronomy

Mar. 10, 2013 Rise Set
Actual Time 7:29 AM EDT 7:13 PM EDT
Civil Twilight 7:03 AM EDT 7:40 PM EDT
Nautical Twilight 6:32 AM EDT 8:11 PM EDT
Astronomical Twilight 6:01 AM EDT 8:42 PM EDT
Moon 6:28 AM EDT (3/10) 6:19 PM EDT (3/10)
Length of Visible Light 12h 36m
Length of Day
11h 43m
Waning Crescent, 2% of the Moon is Illuminated
Mar 10
Waning Crescent
Mar 11
New
Mar 19
First Quarter
Mar 27
Full
Apr 3
Last Quarter

Hourly Weather History & Observations

Time (EDT) Temp. Dew Point Humidity Pressure Visibility Wind Dir Wind Speed Gust Speed Precip Events Conditions
12:15 AM 33.8 °F 30.2 °F 87% 30.31 in 10.0 mi Calm Calm - N/A   Clear
12:35 AM 33.8 °F 32.0 °F 93% 30.31 in 10.0 mi Calm Calm - N/A   Clear
12:55 AM 33.8 °F 33.8 °F 100% 30.31 in 10.0 mi Calm Calm - N/A   Clear
1:15 AM 32.0 °F 32.0 °F 100% 30.31 in 10.0 mi Calm Calm - N/A   Clear
1:35 AM 32.0 °F 32.0 °F 100% 30.31 in 10.0 mi Calm Calm - N/A   Clear
1:55 AM 32.0 °F 32.0 °F 100% 30.30 in 10.0 mi Calm Calm - N/A   Clear
3:15 AM 32.0 °F 30.2 °F 93% 30.30 in 10.0 mi Calm Calm - N/A   Clear
3:35 AM 32.0 °F 30.2 °F 93% 30.29 in 10.0 mi Calm Calm - N/A   Clear
3:55 AM 32.0 °F 30.2 °F 93% 30.29 in 10.0 mi Calm Calm - N/A   Clear
4:15 AM 30.2 °F 30.2 °F 100% 30.29 in 10.0 mi Calm Calm - N/A   Clear
4:35 AM 30.2 °F 30.2 °F 100% 30.28 in 10.0 mi Calm Calm - N/A   Clear
4:55 AM 30.2 °F 30.2 °F 100% 30.28 in 10.0 mi Calm Calm - N/A   Clear
5:15 AM 30.2 °F 30.2 °F 100% 30.29 in 10.0 mi Calm Calm - N/A   Clear
5:35 AM 30.2 °F 30.2 °F 100% 30.29 in 10.0 mi Calm Calm - N/A   Clear
5:55 AM 30.2 °F 30.2 °F 100% 30.29 in 10.0 mi Calm Calm - N/A   Clear
6:15 AM 30.2 °F 30.2 °F 100% 30.30 in 10.0 mi Calm Calm - N/A   Clear
6:35 AM 30.2 °F 30.2 °F 100% 30.30 in 10.0 mi Calm Calm - N/A   Clear
6:55 AM 30.2 °F 30.2 °F 100% 30.30 in 10.0 mi Calm Calm - N/A   Clear
7:15 AM 28.4 °F 28.4 °F 100% 30.31 in 10.0 mi Calm Calm - N/A   Clear
8:35 AM 33.8 °F 33.8 °F 100% 30.32 in 10.0 mi Calm Calm - N/A   Clear
8:55 AM 35.6 °F 33.8 °F 93% 30.32 in 10.0 mi Calm Calm - N/A   Clear
9:15 AM 37.4 °F 32.0 °F 81% 30.33 in 10.0 mi Calm Calm - N/A   Clear
9:35 AM 41.0 °F 33.8 °F 76% 30.33 in 10.0 mi Calm Calm - N/A   Clear
9:55 AM 44.6 °F 35.6 °F 71% 30.33 in 10.0 mi Calm Calm - N/A   Clear
10:15 AM 46.4 °F 35.6 °F 66% 30.33 in 10.0 mi Calm Calm - N/A   Clear
10:35 AM 50.0 °F 35.6 °F 58% 30.33 in 10.0 mi ESE 3.5 mph - N/A   Clear
10:55 AM 53.6 °F 35.6 °F 51% 30.33 in 10.0 mi Calm Calm - N/A   Clear
11:15 AM 55.4 °F 33.8 °F 44% 30.33 in 10.0 mi South 3.5 mph - N/A   Clear
11:35 AM 59.0 °F 32.0 °F 36% 30.32 in 10.0 mi SSE 3.5 mph - N/A   Clear
11:55 AM 60.8 °F 32.0 °F 34% 30.31 in 10.0 mi SSW 9.2 mph - N/A   Clear
12:15 PM 62.6 °F 33.8 °F 34% 30.31 in 10.0 mi SW 10.4 mph - N/A   Clear
12:35 PM 62.6 °F 30.2 °F 30% 30.31 in 10.0 mi South 6.9 mph - N/A   Clear
12:55 PM 62.6 °F 30.2 °F 30% 30.31 in 10.0 mi SSW 10.4 mph - N/A   Clear
1:15 PM 64.4 °F 32.0 °F 30% 30.29 in 10.0 mi SSW 9.2 mph - N/A   Clear
1:35 PM 64.4 °F 30.2 °F 28% 30.29 in 10.0 mi South 8.1 mph - N/A   Clear
1:55 PM 64.4 °F 32.0 °F 30% 30.27 in 10.0 mi SSE 4.6 mph - N/A   Clear
2:15 PM 66.2 °F 30.2 °F 26% 30.26 in 10.0 mi SSE 5.8 mph - N/A   Clear
2:35 PM 66.2 °F 30.2 °F 26% 30.25 in 10.0 mi South 9.2 mph - N/A   Clear
2:55 PM 66.2 °F -23.8 °F 4% 30.24 in 10.0 mi South 5.8 mph - N/A   Clear
3:15 PM 66.2 °F -23.8 °F 4% 30.24 in 10.0 mi SSE 6.9 mph - N/A   Clear
3:35 PM 68.0 °F -22.0 °F 4% 30.24 in 10.0 mi South 6.9 mph - N/A   Clear
3:55 PM 69.8 °F -20.2 °F 4% 30.24 in 10.0 mi South 6.9 mph - N/A   Clear
4:15 PM 68.0 °F -20.2 °F 4% 30.24 in 10.0 mi SSW 9.2 mph - N/A   Clear
4:35 PM 68.0 °F -22.0 °F 4% 30.23 in 10.0 mi South 5.8 mph - N/A   Clear
4:55 PM 69.8 °F -20.2 °F 4% 30.22 in 7.0 mi South 8.1 mph - N/A   Clear
5:15 PM 69.8 °F -20.2 °F 4% 30.21 in 10.0 mi South 8.1 mph - N/A   Clear
5:35 PM 68.0 °F -20.2 °F 4% 30.21 in 10.0 mi South 5.8 mph - N/A   Clear
5:55 PM 68.0 °F -22.0 °F 4% 30.21 in 10.0 mi South 4.6 mph - N/A   Clear
6:15 PM 66.2 °F -22.0 °F 4% 30.21 in 10.0 mi South 6.9 mph - N/A   Clear
6:35 PM 66.2 °F -23.8 °F 4% 30.21 in 10.0 mi SSE 4.6 mph - N/A   Clear
6:55 PM 64.4 °F -23.8 °F 4% 30.21 in 10.0 mi Calm Calm - N/A   Clear
7:15 PM 60.8 °F -25.6 °F 4% 30.22 in 10.0 mi Calm Calm - N/A   Clear
7:35 PM 55.4 °F -29.2 °F 4% 30.23 in 10.0 mi Calm Calm - N/A   Clear
7:55 PM 57.2 °F -29.2 °F 4% 30.24 in 10.0 mi Calm Calm - N/A   Clear
8:15 PM 55.4 °F -29.2 °F 4% 30.24 in 10.0 mi Calm Calm - N/A   Clear
8:35 PM 53.6 °F -31.0 °F 4% 30.23 in 10.0 mi Calm Calm - N/A   Clear
8:55 PM 53.6 °F -31.0 °F 4% 30.23 in 10.0 mi Calm Calm - N/A   Clear
9:15 PM 51.8 °F -32.8 °F 4% 30.22 in 10.0 mi Calm Calm - N/A   Clear
9:35 PM 50.0 °F -34.6 °F 4% 30.23 in 10.0 mi Calm Calm - N/A   Clear
9:55 PM 46.4 °F -34.6 °F 4% 30.24 in 10.0 mi Calm Calm - N/A   Clear
10:15 PM 46.4 °F -36.4 °F 4% 30.24 in 10.0 mi Calm Calm - N/A   Clear
10:35 PM 46.4 °F -36.4 °F 4% 30.24 in 10.0 mi Calm Calm - N/A   Clear
10:55 PM 46.4 °F -36.4 °F 4% 30.23 in 10.0 mi Calm Calm - N/A   Clear
11:15 PM 46.4 °F -36.4 °F 4% 30.23 in 10.0 mi Calm Calm - N/A   Clear
11:35 PM 46.4 °F -36.4 °F 4% 30.23 in 10.0 mi Calm Calm - N/A   Clear
11:55 PM 46.4 °F -34.6 °F 4% 30.23 in 10.0 mi Calm Calm - N/A   Clear
12:15 AM 44.6 °F -36.4 °F 4% 30.23 in 10.0 mi Calm Calm - N/A   Clear
12:35 AM 44.6 °F -36.4 °F 4% 30.23 in 10.0 mi Calm Calm - N/A   Clear
12:55 AM 44.6 °F -38.2 °F 4% 30.22 in 10.0 mi Calm Calm - N/A   Clear